Regional Weather Roundup
Issued by NWS

Home | Current Version | Previous Version | Text Only | Print | Product List | Glossary Off
Versions: 1 2 3 4 5 6 7 8 9 10 11 12 13 14 15 16 17 18 19 20 21 22 23 24 25 26 27 28 29 30 31 32 33 34 35 36 37 38 39 40 41 42 43 44 45 46 47 48 49 50

000
ASUS43 KOAX 282002
RWRNE

WEATHER ROUNDUP FOR NEBRASKA
NATIONAL WEATHER SERVICE OMAHA NE
300 PM CDT FRI AUG 28 2015

NOTES: SATELLITE DATA IS BEING USED TO AUGMENT CLOUD COVER ABOVE
       12000 FEET.
       "FAIR" INDICATES FEW OR NO CLOUDS BELOW 12,000 FEET WITH NO
       SIGNIFICANT WEATHER AND/OR OBSTRUCTIONS TO VISIBILITY.

  * THESE STATIONS DO NOT REPORT WEATHER SUCH AS RAIN...SNOW OR FOG.

NEZ001>004-019>022-054>056-282100-
NEBRASKA PANHANDLE

CITY           SKY/WX    TMP DP  RH WIND       PRES   REMARKS
SCOTTSBLUFF    SUNNY     88  47  24 W10       30.10F
ALLIANCE       SUNNY     87  45  23 N12       30.09S
CHADRON        SUNNY     89  48  24 N8        30.06S HAZE
KIMBALL        SUNNY     82  44  26 N14       30.16
SIDNEY         SUNNY     89  42  19 N16G22    30.13S
$$

NEZ057>060-069>072-079>082-282100-
SOUTHWEST NEBRASKA

CITY           SKY/WX    TMP DP  RH WIND       PRES   REMARKS
NORTH PLATTE   MOSUNNY   81  62  52 N13       30.01S
IMPERIAL       SUNNY     89  54  30 N13       30.03F
LEXINGTON      CLOUDY    78  65  64 N14       30.00R
MC COOK        MOSUNNY   85  62  46 N13       29.99S
OGALLALA       SUNNY     87  53  30 N10G16    30.04S
$$

NEZ005>010-023>029-035>040-094-282100-
NORTH CENTRAL NEBRASKA

CITY           SKY/WX    TMP DP  RH WIND       PRES   REMARKS
VALENTINE      MOSUNNY   79  62  56 MISG      30.03R
AINSWORTH      MOSUNNY   75  64  67 N9        30.03S
BROKEN BOW     PTSUNNY   76  61  59 N12G20    30.00S
O`NEILL        CLOUDY    73  64  73 N9        29.99R
ORD            CLOUDY    75  61  61 N13G21    29.97R
THEDFORD       MOSUNNY   79  64  59 N8        30.03S
$$

NEZ041-046>049-061>064-073>077-083>087-282100-
SOUTH CENTRAL NEBRASKA

CITY           SKY/WX    TMP DP  RH WIND       PRES   REMARKS
GRAND ISLAND   CLOUDY    77  62  59 N15       29.95R
AURORA         CLOUDY    72  66  81 N12G17    29.94R
HASTINGS       CLOUDY    76  63  64 NW15      29.95R
HEBRON         CLOUDY    79  64  60 NW9       29.90R
HOLDREGE       PTSUNNY   76  65  69 N12G17    29.98S
KEARNEY *      PTSUNNY   77  63  61 N14       29.97S
YORK           CLOUDY    72  64  78 N9        29.92S
$$

NEZ011>018-030>034-042>045-282100-
NORTHEAST NEBRASKA

CITY           SKY/WX    TMP DP  RH WIND       PRES   REMARKS
NORFOLK        CLOUDY    70  64  81 N13       29.91S
ALBION         CLOUDY    72  62  71 N10G18    29.95R
BLAIR          CLOUDY    71  65  82 NW8G16    29.86R
COLUMBUS *     CLOUDY   N/A N/A N/A N10G16    29.91R
FREMONT        CLOUDY    73  64  75 NW13      29.88R
TEKAMAH        CLOUDY    73  67  81 NW12      29.85R
$$

NEZ050>053-065>068-078-088>093-282100-
SOUTHEAST NEBRASKA

CITY           SKY/WX    TMP DP  RH WIND       PRES   REMARKS
LINCOLN        CLOUDY    77  66  68 NW14      29.88R
OMAHA EPPLEY   CLOUDY    77  69  76 W13       29.83R
BEATRICE       CLOUDY    79  67  67 NW9       29.87S
FALLS CITY     CLOUDY    81  69  67 S8        29.84F
NEBRASKA CITY  PTSUNNY   80  67  66 SW8       29.85F
PLATTSMOUTH    CLOUDY    78  69  73 SW6       29.85S
$$

NEZ044-045-051>053-067-282100-
OMAHA AREA

CITY           SKY/WX    TMP DP  RH WIND       PRES   REMARKS
EPPLEY FIELD   CLOUDY    77  69  76 W13       29.83R
BLAIR          CLOUDY    71  65  82 NW8G16    29.86R
FREMONT        CLOUDY    73  64  75 NW13      29.88R
MILLARD        CLOUDY    77  69  77 W10G16    29.84R
OFFUTT AFB     PTSUNNY   78  70  75 SW7       29.83R
PLATTSMOUTH    CLOUDY    78  69  73 SW6       29.85S
WAHOO          CLOUDY    74  67  79 NW13G18   29.87R
$$


USA.gov is the U.S. government's official web portal to all federal, state and local government web resources and services.